ARIANE 42P DEB, 44513

Orbit data source: Space-Track

ARIANE 42P DEB, 44513 is space debris in LEO originally from a launch on Mon, 10 Aug 1992 UTC launched from the French Guiana (FRGUI). Debris objects in space refer to the collection of defunct objects orbiting the Earth. Examples of debris include non-operational satellites, rocket bodies, and fragments generated from explosions, collisions, or faulty payload assembly.

Loading next visibility...
ARIANE 42P DEB details
Identifier
44513, 1992-052L
Orbit
LEO
Last TLE update2 months ago
Origin
Flag of FRArianespace (FR)
ManufacturerArianeGroup
MissionSpacecraft
Bus & MotorUnknown
MassUnknown
Launch date (UTC)
1992-08-10 (32 years ago)
Launch vehicleUnknown
Launch site
French Guiana (FRGUI)
Object type
Payload
Rocket body
Debris
Shape & HBRUnknown
Radar Cross SectionSmall (<0.1 m²)

Expand to show TLE details & history

TLE from 2 months ago
0 ARIANE 42P DEB
1 44513U 92052L   24314.60695937  .00002410  00000-0  10916-1 0  9999
2 44513  66.0393  73.4407 0068185 203.0599 156.7351 12.78905833243932
Epoch: 2024-11-09T14:34Z
Definitive object data (Epoch: 2024-11-09T14:34:01.289Z)
Latitude
Longitude165.67682°
Altitude1,396.224 km
Speed7.14 km/s
True Right ascension04h 53m 45s
True Declination0° 00' 00"
Sunlit
Object was in full shadow at TLE epoch
Visualization TLE readout
Latitude-65.47664°
Longitude-6.97769°
Altitude1,372.201 km
Speed7.171 km/s
Apparent Right ascension19h 57m 25s
Apparent Declination-57° 48' 18"
Sunlit
Object is in daylight
Visualization observer readout
Local Sidereal Time09:34:19
Azimuth147.048° SSE
Elevation-66.3°
Doppler factor1
Orbital elements
Apogee altitude1,397.093 km
Perigee altitude1,291.781 km
Semi-major axis7,722.574 km
Eccentricity0.0068185
Inclination66.0393°
RAAN73.4407°
Arg. of periapsis203.0599°
True anomaly157.04132°
Mean anomaly156.7351°
Eccentric anomaly156.88845°
Mean motion3.19816 °/min
BSTAR0.010916
Orbital period112.56 mins
Loading maneuver chart data...
Loading historical data...
Loading historical data...
Loading historical data...
Loading historical data...
Loading historical data...
Loading historical data...
Loading historical data...

ARIANE 42P DEB Visibility forecast

Observer location: undefined°, undefined

Span
Click to sort rows by Start time (UTC) header in descending order
Start Az.
Max El. time (UTC)
Max El. Az.
Max El.
End time (UTC)
End Az.
10 mins2024-12-26 11:19:10.584Z300.081° NW2024-12-26 11:24:10.584Z260.661° W18.761°2024-12-26 11:29:10.584Z218.607° SW
15 mins2024-12-26 23:54:10.584Z194.292° SSW2024-12-27 00:01:10.584Z119.813° SE42.935°2024-12-27 00:09:10.584Z35.144° NE
13 mins2024-12-27 01:52:10.584Z261.729° W2024-12-27 01:58:10.584Z318.129° NNW27.901°2024-12-27 02:05:10.584Z16.699° NNE
12 mins2024-12-27 07:52:10.584Z351.795° N2024-12-27 07:57:10.584Z40.832° NE28.12°2024-12-27 08:04:10.584Z104.935° ESE
14 mins2024-12-27 09:47:10.584Z322.661° NNW2024-12-27 09:54:10.584Z240.311° WSW41.884°2024-12-27 10:01:10.584Z167.725° S
|